www.pogodaiklimat.ru

Погода и климат >> Архив погоды >> Россия >> Камчатский край >> Слаутное


ПОГОДА в Слаутном

  • Прогноз погоды в Слаутном
  • Монитор погоды в Слаутном

АРХИВ ПОГОДЫ в Слаутном

Время (UTC), дата Ветер
(напр.,м/с)
 
Видим.   Явления Облачность Т
(С)
Тd
(С)
f
(%)
Тe
(С)
Тes
(С)
Комфортность P
(гПа)
Po
(гПа)
Тmin
(С)
Tmax
(С)
R
(мм)
R24
(мм)
S
(см)
00 14.03 Ю 2 50 км ясно -23.8 -30.1 56 -30 -26 1014.3 1008.2
03 14.03 ЮВ 1 50 км ясно -22.9 -28.9 58 -26 -23 1012.5 1006.4
06 14.03 Ю 1 50 км 3/1 600 м
[Sc Ac trans Ci fib]
-24.9 -30.2 61 -28 -28 1011.8 1005.7
09 14.03 ЮВ 1 20 км ясно -33.4 -36.6 73 -38 -38 опасность
обморожения
1011.5 1005.2 -21.7
12 14.03 ЮВ 1 20 км ясно -35.7 -39.3 69 -40 -40 опасность
обморожения
1010.5 1004.1
15 14.03 В 1 н/о н/о -37.4 -41.4 66 -42 -42 опасность
обморожения
1009.3 1002.8
18 14.03 ЮВ 1 20 км ясно -38.9 -43.2 64 -44 -44 опасность
обморожения
1008.8 1002.3
21 14.03 штиль 0 50 км ясно -33.0 -36.8 69 -33 -32 опасность
обморожения
1008.5 1002.2 -40.2 21
00 15.03 ЮВ 1 50 км ясно -26.5 -31.8 61 -30 -26 1007.7 1001.6
03 15.03 Ю 2 50 км 3/1 600 м
[Sc Ac trans Ci fib]
-23.8 -29.5 59 -30 -28 1006.8 1000.7
06 15.03 Ю 2 50 км 3/1 600 м
[Sc Ac trans Ci fib]
-24.5 -29.8 61 -31 -31 опасность
обморожения
1007.0 1000.9
09 15.03 ЮВ 1 20 км ясно -32.4 -35.7 72 -37 -37 опасность
обморожения
1007.9 1001.6 -23.3
12 15.03 В 1 20 км ясно -30.9 -34.4 71 -35 -35 опасность
обморожения
1008.5 1002.2
15 15.03 штиль 0 20 км слаб. снег 10/10 600 м
[Frnb Ns]
-29.4 -32.7 73 -29 -29 1008.7 1002.5
18 15.03 штиль 0 20 км 3/1 600 м
[Sc Ac trans Ci fib]
-29.7 -33.0 73 -30 -30 1009.3 1003.1
21 15.03 ЮВ 1 50 км 5/3 600 м
[Sc Ac trans Ci fib]
-28.2 -31.6 73 -32 -31 опасность
обморожения
1010.0 1003.8 -32.8 0.0 21
00 16.03 Ю 2 50 км 4/3 600 м
[Sc Ac trans Ci fib]
-23.2 -28.4 62 -30 -27 1010.3 1004.2
03 16.03 Ю 3 50 км ясно -21.6 -26.5 64 -30 -27 1010.2 1004.2
06 16.03 Ю 2 50 км 3/1 600 м
[Sc Ac trans Ci fib]
-21.8 -26.0 69 -28 -28 1010.6 1004.6
09 16.03 Ю 1 20 км 8/6 600 м
[Sc Ac trans Ci fib]
-24.6 -27.3 78 -28 -28 1011.3 1005.2 -20.1
12 16.03 Ю 1 20 км 9/8 600 м
[Sc Ac trans Ci fib]
-24.2 -27.4 75 -28 -28 1011.8 1005.7
15 16.03 Ю 1 20 км 10/10 600 м
[Sc]
-23.3 -26.7 74 -27 -27 1011.8 1005.7
18 16.03 ЮЗ 1 н/о н/о -25.1 -28.1 76 -29 -29 1011.9 1005.8
21 16.03 Ю 1 50 км 9/8 600 м
[Sc Ac trans Ci fib]
-23.8 -27.7 70 -27 -27 1011.8 1005.7 -28.3 21
00 17.03 Ю 2 50 км 8/5 600 м
[Sc Ac trans Ci fib]
-20.0 -25.6 61 -26 -24 1011.2 1005.3
03 17.03 Ю 2 50 км 4/3 600 м
[Sc Ac trans Ci fib]
-18.8 -24.6 60 -24 -22 1010.8 1004.8
06 17.03 штиль 0 50 км 5/3 600 м
[Sc Ac trans Ci fib]
-19.6 -26.1 56 -20 -20 1010.2 1004.2
09 17.03 ЮВ 1 20 км ясно -29.5 -32.3 77 -34 -34 опасность
обморожения
1010.4 1004.2 -17.9
12 17.03 В 1 н/о н/о -31.3 -34.3 75 -36 -36 опасность
обморожения
1010.0 1003.8
15 17.03 В 1 н/о н/о -31.5 -34.6 74 -36 -36 опасность
обморожения
1009.4 1003.1
18 17.03 штиль 0 20 км 10/10 600 м
[Sc]
-28.6 -31.8 74 -29 -29 1008.7 1002.5
21 17.03 штиль 0 20 км 9/8 600 м
[Sc Ac trans Ci fib]
-24.8 -27.6 77 -25 -25 1008.0 1001.9 -33.6 21
00 18.03 Ю 2 20 км слаб. снег 10/10 600 м
[Frnb Ns]
-21.9 -26.3 67 -28 -28 1007.2 1001.2
03 18.03 ЮВ 3 20 км {снег} 8/6 600 м
[Sc Ac trans Ci fib]
-21.1 -25.4 68 -29 -28 1006.2 1004.1
06 18.03 Ю 1 20 км 10/10 600 м
[Sc]
-21.6 -24.9 75 -25 -25 1005.7 999.7
09 18.03 Ю 1 20 км 5/3 600 м
[Sc Ac trans Ci fib]
-24.3 -26.5 82 -28 -28 1005.8 999.8 -20.1 0.1
12 18.03 Ю 1 20 км 10/10 600 м
[Sc]
-25.5 -28.2 78 -29 -29 1005.9 999.8
15 18.03 ЮЗ 1 20 км 6/4 600 м
[Sc Ac trans Ci fib]
-28.7 -31.6 76 -33 -33 опасность
обморожения
1006.5 1000.3
18 18.03 В 1 20 км 8/6 600 м
[Sc Ac trans Ci fib]
-30.0 -33.0 75 -34 -34 опасность
обморожения
1007.3 1001.1
21 18.03 СВ 1 50 км 9/8 600 м
[Sc Ac trans Ci fib]
-27.1 -30.3 74 -31 -31 опасность
обморожения
1008.4 1002.2 -31.0 21
00 19.03 СВ 2 20 км 9/8 600 м
[Sc Ac trans Ci fib]
-21.3 -26.3 64 -27 -27 1009.4 1003.4
03 19.03 ЮВ 2 20 км 8/6 600 м
[Sc Ac trans Ci fib]
-20.1 -25.9 60 -26 -25 1010.1 1004.1
06 19.03 Ю 1 20 км 6/4 600 м
[Sc Ac trans Ci fib]
-21.6 -27.4 59 -25 -25 1011.1 1005.1
09 19.03 ЮВ 1 20 км 5/3 600 м
[Sc Ac trans Ci fib]
-28.9 -31.9 75 -33 -33 опасность
обморожения
1012.7 1006.5 -19.5
12 19.03 ЮВ 1 20 км ясно -33.1 -36.5 71 -38 -38 опасность
обморожения
1013.9 1007.6
15 19.03 В 2 20 км ясно -34.8 -38.3 70 -43 -43 опасность
обморожения
1014.9 1008.5
18 19.03 В 1 50 км ясно -37.1 -40.9 68 -42 -42 опасность
обморожения
1015.9 1009.4
21 19.03 ЮВ 1 50 км ясно -32.2 -36.6 65 -37 -35 опасность
обморожения
1016.6 1010.2 -38.4 21
00 20.03 С 3 50 км ясно -22.7 -28.0 62 -31 -27 опасность
обморожения
1016.5 1010.4
03 20.03 С 6-10
{11}
50 км 9/8 600 м
[Sc Ac trans Ci fib]
-19.0 -23.4 68 -30 -29 1016.3 1010.3
06 20.03 С 6-11
{12}
20 км 10/10 600 м
[Sc]
-19.8 -23.8 70 -31 -31 опасность
обморожения
1017.0 1011.0
09 20.03 С 5
{11}
20 км 10/10 600 м
[Sc]
-20.0 -23.4 74 -30 -30 1018.4 1012.3 -18.5
12 20.03 С 4
{10}
20 км 10/10 600 м
[Sc]
-20.8 -23.2 81 -30 -30 1019.7 1013.6
15 20.03 С 4 20 км 10/10 600 м
[Sc]
-21.0 -23.9 77 -30 -30 1020.7 1014.7
18 20.03 С 4 20 км ясно -22.0 -25.5 73 -31 -31 опасность
обморожения
1021.5 1015.4
21 20.03 С 4 50 км 8/6 600 м
[Sc Ac trans Ci fib]
-20.4 -24.6 69 -29 -29 1022.3 1016.2 -22.2 21

 

Местоположение метеостанции Слаутное (Камчатский край, Россия): широта 63.20 долгота 167.80 высота над уровнем моря 44 м.

В архиве по умолчанию представлена погода в Слаутном за последнюю неделю. Архивные данные за месяц целиком и за предыдущие месяцы, начиная с января 2011 года, Вы можете получить, выбрав интересующий диапазон дат из раскрывающегося списка и нажав кнопку "Ввод!".


*Определитесь, кто Вы:
робот инопланетянин человек

Внимание! Время в таблицах - всемирное. Для получения местного времени необходимо прибавить поправку, которая равна 12 ч.

Смотрите также архив погоды в соседних городах и на ближайших метеорологических станциях:

Погода в Каменском (Камчатский край, Россия) (114 км)
Погода в Марково (Чукотка, Россия) (208 км)
Погода в Верхне-Пенжино (Камчатский край, Россия) (210 км)
Погода в Тиличиках (Камчатский край, Россия) (322 км)
Погода в Апуке (Камчатский край, Россия) (322 км)
Погода в Кегали (Магаданская область, Россия) (354 км)
Погода в Танюрере (Чукотка, Россия) (371 км)
Погода в Чемурнауте (Камчатский край, Россия) (372 км)
Погода в Баимке (Чукотка, Россия) (407 км)
Погода в Омолоне (Чукотка, Россия) (419 км)

Пояснения к столбцам:

Ветер - указаны скорость ветра в м/с - средняя за 10 мин, порывы в срок и между сроками (в фигурных скобках) и направление, откуда дует ветер: С - северный, СВ - северо-восточный, В - восточный, ЮВ - юго-восточный, Ю - южный, ЮЗ - юго-западный, З - западный, СЗ - северо-западный.
Видимость - горизонтальная дальность видимости в метрах или километрах. При видимости от 1 до 10 км при отсутствии осадков обычно наблюдается дымка, при ухудшении видимости до 1 км и менее - туман. В сухую погоду видимость может ухудшаться дымом, пылью или мглою.
Явления - указаны атмосферные явления, наблюдавшиеся в срок или в последний час перед сроком; фигурными скобками обозначены явления, наблюдавшиеся между сроками (за 1-3 часа до срока); квадратными скобками обозначены град или гололедные отложения с указанием их диаметра в мм.
Облачность - указаны через наклонную черту общая и нижняя облачность в баллах и высота нижней границы облаков в метрах; квадратными скобками обозначены формы облаков: Ci - перистые, Cs - перисто-слоистые, Cc - перисто-кучевые, Ac - высококучевые, As - высокослоистые, Sc - слоисто-кучевые, Ns - слоисто-дождевые, Cu - кучевые, Cb - кучево-дождевые. Подробнее классификацию облаков см. в Атласе облаков (PDF).
T - Температура воздуха - температура, измеренная на высоте 2 м над землей.
Td - Температура точки росы - температура, при понижении до которой содержащийся в воздухе водяной пар достигнет насыщения.
f - Относительная влажность воздуха - влажноcть воздуха, измеренная на высоте 2 м над землей.
Te - Эффективная температура - температура, которую ощущает одетый по сезону человек в тени. Характеристика душности погоды. При расчете учитывается влияние влажности воздуха и скорости ветра на теплоощущения человека.
Tes - Эффективная температура на солнце - температура, которую ощущает человек, с поправкой на солнечный нагрев. Характеристика знойности погоды. Зависит от высоты солнца над горизонтом, облачности и скорости ветра. Ночью, в пасмурную погоду, а также при ветре 12 м/с и более поправка равна нулю.
P - Атмосферное давление - приведенное к уровню моря атмосферное давление.
Po - Атмосферное давление - измеренное на уровне метеостанции атмосферное давление.
Tmin - Минимальная температура - минимум температуры воздуха на высоте 2 м над землей.
Tmax - Максимальная температура - максимум температуры воздуха на высоте 2 м над землей.
R - Количество осадков - Количество выпавших осадков за период времени, мм. При наведении курсора мыши на число - период времени, за который выпало указанное количество осадков.
R24 - Количество осадков - Количество выпавших осадков за 24 часа, мм.
S - Снежный покров - Высота снежного покрова, см. При наведении курсора мыши на число - состояние снежного покрова и степень покрытия местности в баллах.